Kuantan, Malaysia

10:45 PM +08 on October 15, 2019 (GMT +0800)
Kuantan

Weather History for WMKD - August, 2019

Change the Weather History Date:

Sunday, August 25, 2019

  Actual Average (WUND) Record (WUND)
Temperature  
Mean Temperature 84 °F -  
Max Temperature 91 °F 90 °F - (-1)
Min Temperature 76 °F 72 °F - (-1)
Cooling Degree Days 18    
Growing Degree Days 34 (Base 50)    
Moisture  
Dew Point 76 °F    
Average Humidity 83    
Maximum Humidity 94    
Minimum Humidity 64    
Precipitation  
Precipitation 1.06 in 0.29 in - ()
Sea Level Pressure  
Sea Level Pressure 29.83 in    
Wind  
Wind Speed 1 mph ()    
Max Wind Speed 6 mph    
Max Gust Speed -    
Visibility 4.8 miles    
Events Rain    
Averages and records for this station are not official NWS values.
T = Trace of Precipitation, MM = Missing Value Source: Averaged Metar Reports

Daily Weather History Graph

Daily Weather History Graph

Search for Another Location

Airport or City:

Astronomy

Aug. 25, 2019 Rise Set
Actual Time 7:03 AM +08 7:15 PM +08
Civil Twilight 6:42 AM +08 7:36 PM +08
Nautical Twilight 6:17 AM +08 8:01 PM +08
Astronomical Twilight 5:52 AM +08 8:25 PM +08
Moon 1:46 AM +08 (8/25) 2:24 PM +08 (8/25)
Length of Visible Light 12h 54m
Length of Day
12h 12m
Waning Crescent, 34% of the Moon is Illuminated
Aug 25
Waning Crescent
Aug 30
New
Sep 6
First Quarter
Sep 14
Full
Sep 22
Last Quarter

Hourly Weather History & Observations

Time (+08) Temp. Heat Index Dew Point Humidity Pressure Visibility Wind Dir Wind Speed Gust Speed Precip Events Conditions
12:00 AM 78.8 °F - 75.2 °F 89% 29.86 in 5.6 mi Calm Calm - N/A   Mostly Cloudy
1:00 AM 78.8 °F - 75.2 °F 89% 29.86 in 5.6 mi Calm Calm - N/A   Mostly Cloudy
2:00 AM 76 °F - 74 °F 91% 29.85 in 4 mi SSW 4.6 mph - - Rain Light Rain
2:00 AM 77.0 °F - 73.4 °F 89% 29.83 in 4.3 mi Variable 4.6 mph - N/A Rain Light Rain
3:00 AM 77.0 °F - 75.2 °F 94% 29.83 in 4.3 mi Calm Calm - N/A Rain Light Rain
4:00 AM 77.0 °F - 75.2 °F 94% 29.83 in 5.0 mi Calm Calm - N/A   Mostly Cloudy
5:00 AM 77 °F - 75 °F 91% 29.83 in 5 mi Calm Calm - -   Haze
5:00 AM 77.0 °F - 75.2 °F 94% 29.83 in 5.0 mi Calm Calm - N/A   Mostly Cloudy
6:00 AM 77.0 °F - 75.2 °F 94% 29.83 in 5.0 mi Calm Calm - N/A   Mostly Cloudy
7:00 AM 77.0 °F - 75.2 °F 94% 29.83 in 3.7 mi Calm Calm - N/A   Mostly Cloudy
8:00 AM 78 °F - 76 °F 91% 29.87 in 4 mi NNW 1.2 mph - -   Haze
8:00 AM 78.8 °F - 75.2 °F 89% 29.86 in 3.7 mi Variable 1.2 mph - N/A   Mostly Cloudy
9:00 AM 80.6 °F 87.1 °F 77.0 °F 89% 29.89 in 5.6 mi Calm Calm - N/A   Mostly Cloudy
10:00 AM 82.4 °F 90.9 °F 77.0 °F 84% 29.89 in 6.2 mi Variable 2.3 mph - N/A   Mostly Cloudy
11:00 AM 84 °F - 77 °F 75% 29.89 in 8 mi South 3.5 mph - -   Haze
11:00 AM 84.2 °F 94.1 °F 77.0 °F 79% 29.89 in 6.2 mi Variable 3.5 mph - N/A   Mostly Cloudy
1:00 PM 87.8 °F 99.7 °F 77.0 °F 70% 29.83 in 6.2 mi Variable 5.8 mph - N/A   Mostly Cloudy
2:00 PM 89.6 °F 102.2 °F 77.0 °F 66% 29.80 in 6.2 mi Variable 4.6 mph - N/A   Mostly Cloudy
3:00 PM 89.6 °F 104.7 °F 78.8 °F 70% 29.80 in 6.2 mi Variable 5.8 mph - N/A   Mostly Cloudy
4:00 PM 87.8 °F 102.5 °F 78.8 °F 75% 29.77 in 6.2 mi Variable 4.6 mph - N/A   Mostly Cloudy
5:00 PM 89 °F - 78 °F 64% 29.77 in 5 mi SSW 4.6 mph - -   Haze
5:00 PM 89.6 °F 104.7 °F 78.8 °F 70% 29.77 in 5.0 mi Variable 4.6 mph - N/A   Mostly Cloudy
7:00 PM 86.0 °F 99.3 °F 78.8 °F 79% 29.77 in 4.3 mi Calm Calm - N/A   Mostly Cloudy
8:00 PM 84 °F - 77 °F 74% 29.81 in 4 mi Calm Calm - -   Haze
8:00 PM 84.2 °F 94.1 °F 77.0 °F 79% 29.80 in 3.7 mi Calm Calm - N/A   Mostly Cloudy
9:00 PM 82.4 °F 92.4 °F 78.8 °F 89% 29.83 in 2.5 mi Calm Calm - N/A   Haze
10:00 PM 82.4 °F 90.9 °F 77.0 °F 84% 29.86 in 2.5 mi Calm Calm - N/A   Haze
11:00 PM 82.4 °F 90.9 °F 77.0 °F 84% 29.86 in 2.5 mi Calm Calm - N/A   Haze